Zurück zum Katalog

YAOGAN-30 AD

AktivMilitärVLEO
NORAD 49026·PAYLOAD·🇨🇳 China

Gestartet Jul 19, 2021 von Xichang Satellite Launch Center

Loading…

Nächste Überflüge (nächste 24 Stunden)

TLE

AktuellSource: Space-Track

Epoche: Sep 14, 2026, 00:10 UTC

1 49026U 21065A   26257.00758049 -.00000554  00000-0 -38142-4 0  9998
2 49026  34.9925  91.5749 0004454 214.4892 145.5528 15.03005420282010

Verfolge YAOGAN-30 AD in Echtzeit mit AllMySat

Download on the App Store